CW5376 Weather Reports


Display with metric or nautical units.
time (UTC)temp
F
wind
direction
speed
MPH
gust
MPH
rain 1hr
in
rain 24hr
in
rain mn
in
humidity
%
barometer
mb
20260903223002 87 275 8.0 13.0 0.00 0.00 0.00 26 1018.8
20260903221502 87 251 9.0 14.0 0.00 0.00 0.00 26 1019.1
20260903220002 88 257 7.0 17.0 0.00 0.00 0.00 25 1019.2
20260903214501 89 355 6.0 11.0 0.00 0.00 0.00 25 1019.3
20260903213001 90 24 6.0 12.0 0.00 0.00 0.00 24 1019.5
20260903211501 90 273 8.0 14.0 0.00 0.00 0.00 24 1019.7
20260903210003 89 288 8.0 15.0 0.00 0.00 0.00 25 1019.9
20260903203001 86 279 8.0 14.0 0.00 0.00 0.00 27 1020.2
20260903201502 85 311 4.0 9.0 0.00 0.00 0.00 28 1020.5
20260903200003 86 300 4.0 11.0 0.00 0.00 0.00 27 1020.5
20260903194501 87 281 5.0 13.0 0.00 0.00 0.00 26 1020.7
20260903193001 86 266 9.0 15.0 0.00 0.00 0.00 27 1021.1
20260903190003 86 290 4.0 13.0 0.00 0.00 0.00 26 1021.5
20260903184502 86 298 6.0 12.0 0.00 0.00 0.00 27 1021.8
20260903183002 85 185 4.0 7.0 0.00 0.00 0.00 28 1022.2
20260903181503 84 298 6.0 14.0 0.00 0.00 0.00 29 1022.4
20260903180001 83 292 5.0 16.0 0.00 0.00 0.00 30 1022.6
20260903174501 82 281 6.0 10.0 0.00 0.00 0.00 31 1022.9
20260903173002 82 288 7.0 15.0 0.00 0.00 0.00 32 1022.9
20260903171501 81 277 6.0 11.0 0.00 0.00 0.00 34 1022.8
20260903170003 80 338 9.0 17.0 0.00 0.00 0.00 34 1022.9
20260903164501 80 257 8.0 15.0 0.00 0.00 0.00 32 1022.9
20260903163001 79 350 8.0 13.0 0.00 0.00 0.00 36 1022.9
20260903161501 78 269 7.0 14.0 0.00 0.00 0.00 38 1022.7
20260903154501 76 301 6.0 12.0 0.00 0.00 0.00 42 1022.6
20260903153001 75 272 6.0 13.0 0.00 0.00 0.00 43 1022.8
20260903151501 74 275 6.0 12.0 0.00 0.00 0.00 44 1022.9
20260903150002 73 298 7.0 10.0 0.00 0.00 0.00 44 1022.9
20260903144502 74 287 7.0 15.0 0.00 0.00 0.00 44 1022.9
20260903143002 73 288 7.0 13.0 0.00 0.00 0.00 44 1022.9
20260903141502 73 300 7.0 12.0 0.00 0.00 0.00 44 1022.8
20260903140002 72 296 6.0 11.0 0.00 0.00 0.00 44 1022.4
20260903134501 71 279 5.0 9.0 0.00 0.00 0.00 46 1022.3
20260903133001 71 272 5.0 9.0 0.00 0.00 0.00 46 1022.3
20260903131501 71 270 6.0 10.0 0.00 0.00 0.00 46 1022.2
20260903130003 71 263 7.0 11.0 0.00 0.00 0.00 45 1021.8
20260903124501 72 274 7.0 12.0 0.00 0.00 0.00 44 1021.8
20260903121500 72 231 7.0 14.0 0.00 0.00 0.00 44 1021.3
20260903114500 73 309 7.0 15.0 0.00 0.00 0.00 43 1021.2
20260903113000 73 326 7.0 13.0 0.00 0.00 0.00 43 1021.2
20260903111500 73 312 6.0 13.0 0.00 0.00 0.00 43 1021.3
20260903110000 72 283 7.0 15.0 0.00 0.00 0.00 44 1021.2
20260903104500 70 265 7.0 13.0 0.00 0.00 0.00 46 1021.2
20260903102959 65 275 6.0 12.0 0.00 0.00 0.00 49 1021.2
20260903101500 62 338 3.0 9.0 0.00 0.00 0.00 55 1021.2
20260903100002 62 35 2.0 5.0 0.00 0.00 0.00 54 1021.3
20260903094500 63 67 3.0 5.0 0.00 0.00 0.00 54 1021.1
20260903093000 63 138 3.0 5.0 0.00 0.00 0.00 53 1021.1
20260903083000 65 94 3.0 6.0 0.00 0.00 0.00 51 1020.7
20260903080000 66 75 4.0 8.0 0.00 0.00 0.00 50 1020.9
20260903074500 67 58 4.0 8.0 0.00 0.00 0.00 49 1021.1
20260903071459 69 90 2.0 6.0 0.00 0.00 0.00 46 1021.1
20260903064503 70 82 8.0 12.0 0.00 0.00 0.00 45 1020.8
20260903063002 71 39 5.0 7.0 0.00 0.00 0.00 44 1020.6
20260903061503 71 86 9.0 13.0 0.00 0.00 0.00 44 1020.5
20260903060007 71 77 7.0 11.0 0.00 0.00 0.00 44 1020.6
20260903054503 71 81 10.0 14.0 0.00 0.00 0.00 44 1020.6
20260903053004 72 90 7.0 11.0 0.00 0.00 0.00 42 1020.7
20260903051503 73 69 6.0 10.0 0.00 0.00 0.00 41 1020.6
20260903050002 74 40 4.0 7.0 0.00 0.00 0.00 40 1020.7
20260903044503 74 79 3.0 7.0 0.00 0.00 0.00 39 1020.7
20260903043004 75 30 6.0 7.0 0.00 0.00 0.00 38 1020.6
20260903041503 75 54 6.0 9.0 0.00 0.00 0.00 37 1020.5
20260903034503 77 70 5.0 8.0 0.00 0.00 0.00 35 1020.5
20260903033004 77 88 7.0 10.0 0.00 0.00 0.00 35 1020.5
20260903031501 76 65 7.0 9.0 0.00 0.00 0.00 35 1020.4
20260903030004 76 92 6.0 10.0 0.00 0.00 0.00 34 1020.1
20260903024503 77 86 4.0 7.0 0.00 0.00 0.00 34 1019.9
20260903023003 78 42 3.0 5.0 0.00 0.00 0.00 33 1019.8
20260903021502 80 171 3.0 5.0 0.00 0.00 0.00 30 1019.4
20260903020004 82 199 3.0 7.0 0.00 0.00 0.00 28 1019.4
20260903014502 83 200 2.0 4.0 0.00 0.00 0.00 28 1019.3
20260903013003 84 205 4.0 6.0 0.00 0.00 0.00 25 1019.3
20260903011502 85 244 3.0 8.0 0.00 0.00 0.00 25 1019.3
20260903010001 85 277 4.0 7.0 0.00 0.00 0.00 25 1019.3
20260903004501 86 267 5.0 8.0 0.00 0.00 0.00 24 1019.4
20260903001502 87 244 8.0 14.0 0.00 0.00 0.00 22 1019.5
20260903000001 89 318 8.0 15.0 0.00 0.00 0.00 21 1019.6
20260902234501 90 257 6.0 13.0 0.00 0.00 0.00 21 1019.5
20260902233001 90 284 4.0 9.0 0.00 0.00 0.00 21 1019.7
20260902230002 89 219 6.0 11.0 0.00 0.00 0.00 22 1020.1
20260902224502 88 261 9.0 16.0 0.00 0.00 0.00 22 1020.3